Weather History for New York, NY

Change the Weather History Date:

Saturday, November 19, 2011

  Actual Average Record
Temperature  
Mean Temperature 45 °F 47 °F  
Max Temperature 51 °F 54 °F 70 °F (1953)
Min Temperature 39 °F 41 °F 22 °F (2014)
Degree Days  
Heating Degree Days 20 18  
Month to date heating degree days 250 286  
Since 1 July heating degree days 492 558  
Cooling Degree Days 0 0  
Month to date cooling degree days 0 0  
Year to date cooling degree days 1375 1213  
Moisture  
Dew Point 27 °F    
Average Humidity 54    
Maximum Humidity 77    
Minimum Humidity 30    
Precipitation  
Precipitation 0.00 in 0.12 in 1.62 in (2003)
Month to date precipitation 0.70 2.10  
Year to date precipitation 59.27 39.86  
Snow  
Snow 0.00 in 0.10 in 0.60 in (1955)
Month to date snowfall 0.0 0.1  
Since 1 July snowfall 1.7 0.1  
Snow Depth 0.00 in    
Sea Level Pressure  
Sea Level Pressure 30.37 in    
Wind  
Wind Speed 10 mph (SSW)    
Max Wind Speed 18 mph    
Max Gust Speed 23 mph    
Visibility 10 miles    
Events      
T = Trace of Precipitation, MM = Missing Value Source: NWS Daily Summary

Daily Weather History Graph

Daily Weather History Graph

Search for Another Location

Airport:

Trip Planner

Search our weather history database for the weather conditions in past years. The results will help you decide how hot, cold, wet, or windy it might be!

Date:

Astronomy

Nov. 19, 2011 Rise Set
Actual Time 6:46 AM EST 4:34 PM EST
Civil Twilight 6:17 AM EST 5:04 PM EST
Nautical Twilight 5:43 AM EST 5:37 PM EST
Astronomical Twilight 5:11 AM EST 6:10 PM EST
Moon 12:02 AM EST (11/19) 12:52 PM EST (11/19)
Length of Visible Light 10h 47m
Length of Day
9h 47m
Last Quarter, 38% of the Moon is Illuminated
Nov 19
Last Quarter
Nov 25
New
Dec 2
First Quarter
Dec 10
Full
Dec 17
Last Quarter

Hourly Weather History & Observations

Time (EST) Temp. Windchill Dew Point Humidity Pressure Visibility Wind Dir Wind Speed Gust Speed Precip Events Conditions
12:51 AM 39.9 °F 34.5 °F 21.0 °F 47% 30.43 in 10.0 mi SW 8.1 mph - N/A   Partly Cloudy
1:51 AM 39.9 °F 33.9 °F 21.9 °F 49% 30.43 in 10.0 mi SW 9.2 mph - N/A   Partly Cloudy
2:51 AM 39.0 °F 34.0 °F 21.9 °F 50% 30.43 in 10.0 mi SW 6.9 mph - N/A   Scattered Clouds
3:51 AM 39.0 °F 32.3 °F 21.0 °F 49% 30.43 in 10.0 mi SW 10.4 mph - N/A   Scattered Clouds
4:51 AM 39.0 °F 31.8 °F 21.9 °F 50% 30.43 in 10.0 mi SW 11.5 mph 18.4 mph N/A   Mostly Cloudy
5:51 AM 39.9 °F 33.4 °F 21.9 °F 49% 30.44 in 10.0 mi SW 10.4 mph - N/A   Mostly Cloudy
6:51 AM 39.9 °F 32.5 °F 25.0 °F 55% 30.44 in 10.0 mi SW 12.7 mph - N/A   Mostly Cloudy
7:51 AM 41.0 °F 33.5 °F 27.0 °F 57% 30.44 in 10.0 mi SW 13.8 mph 21.9 mph N/A   Mostly Cloudy
8:51 AM 42.8 °F 36.2 °F 26.6 °F 53% 30.45 in 10.0 mi SW 12.7 mph 19.6 mph N/A   Mostly Cloudy
9:51 AM 44.1 °F 37.4 °F 25.0 °F 47% 30.45 in 10.0 mi SW 13.8 mph 20.7 mph N/A   Mostly Cloudy
10:51 AM 46.9 °F - 24.1 °F 41% 30.44 in 10.0 mi SW 10.4 mph - N/A   Mostly Cloudy
11:51 AM 48.0 °F - 21.0 °F 34% 30.39 in 10.0 mi SSW 11.5 mph - N/A   Mostly Cloudy
12:51 PM 50.0 °F - 23.0 °F 35% 30.37 in 10.0 mi SSW 11.5 mph 18.4 mph N/A   Mostly Cloudy
1:51 PM 50.0 °F - 23.0 °F 35% 30.35 in 10.0 mi SSW 13.8 mph - N/A   Mostly Cloudy
2:51 PM 51.1 °F - 24.1 °F 35% 30.34 in 10.0 mi SSW 11.5 mph - N/A   Mostly Cloudy
3:51 PM 51.1 °F - 25.0 °F 36% 30.32 in 10.0 mi SSW 6.9 mph 17.3 mph N/A   Mostly Cloudy
4:51 PM 51.8 °F - 26.6 °F 38% 30.30 in 10.0 mi South 8.1 mph - N/A   Mostly Cloudy
5:51 PM 51.1 °F - 21.0 °F 31% 30.31 in 10.0 mi SSW 11.5 mph 18.4 mph N/A   Mostly Cloudy
6:51 PM 50.0 °F - 27.0 °F 41% 30.30 in 10.0 mi SSW 8.1 mph - N/A   Mostly Cloudy
7:51 PM 50.0 °F - 35.1 °F 57% 30.29 in 10.0 mi SSW 8.1 mph - N/A   Scattered Clouds
8:51 PM 50.0 °F - 39.0 °F 66% 30.29 in 10.0 mi SSW 9.2 mph - N/A   Scattered Clouds
9:51 PM 48.9 °F - 41.0 °F 74% 30.28 in 10.0 mi SSW 9.2 mph - N/A   Mostly Cloudy
10:51 PM 50.0 °F - 42.1 °F 74% 30.27 in 10.0 mi SSW 11.5 mph - N/A   Mostly Cloudy
11:51 PM 48.9 °F - 42.1 °F 77% 30.25 in 10.0 mi SW 8.1 mph - N/A   Mostly Cloudy